{"data":{"norad_id":54830,"epoch":"2026-09-20T21:31:26.620032Z","epoch_age_seconds":59026,"freshness":"FRESH","line1":"1 54830U 22177L   26263.89683588 -.00000073  00000+0  68702-5 0  9991","line2":"2 54830  43.0030 113.9841 0000927 269.4477  90.6268 15.27572812206779","mean_motion":15.27572812,"eccentricity":9.27e-5,"inclination_deg":43.003,"raan_deg":113.9841,"arg_perigee_deg":269.4477,"mean_anomaly_deg":90.6268,"bstar":6.8702e-6,"rev_number":20677,"period_min":94.267192286216,"perigee_km":482.43458563559,"apogee_km":483.70665352826,"semimajor_km":6861.2076195819,"source":"CELESTRAK","updated_at":"2026-09-21T09:00:33.134215Z"}}